Weather History for KRFD - October, 2014

Change the Weather History Date:

Monday, October 20, 2014

  Actual Average Record
Temperature  
Mean Temperature 55 °F 50 °F  
Max Temperature 66 °F 61 °F 86 °F (1953)
Min Temperature 44 °F 40 °F 19 °F (1930)
Degree Days  
Heating Degree Days 10 15  
Month to date heating degree days 250 236  
Since 1 July heating degree days 391 367  
Cooling Degree Days 0 0  
Month to date cooling degree days 3 8  
Year to date cooling degree days 729 819  
Growing Degree Days 5 (Base 50)    
Moisture  
Dew Point 42 °F    
Average Humidity 67    
Maximum Humidity 89    
Minimum Humidity 44    
Precipitation  
Precipitation 0.00 in 0.08 in 1.49 in (1916)
Month to date precipitation 2.61 1.72  
Year to date precipitation 30.86 30.73  
Snow  
Snow 0.00 in 0.00 in 0.30 in (1989)
Month to date snowfall T 0.0  
Since 1 July snowfall T 0.0  
Since 1 September snowfall T 0.0  
Snow Depth 0.00 in    
Sea Level Pressure  
Sea Level Pressure 29.92 in    
Wind  
Wind Speed 10 mph (NNW)    
Max Wind Speed 21 mph    
Max Gust Speed 27 mph    
Visibility 10 miles    
Events      
T = Trace of Precipitation, MM = Missing Value Source: NWS Daily Summary

Daily Weather History Graph

Daily Weather History Graph

Search for Another Location

Airport or City:

Trip Planner

Search our weather history database for the weather conditions in past years. The results will help you decide how hot, cold, wet, or windy it might be!

Date:

Astronomy

Oct. 20, 2014 Rise Set
Actual Time 7:14 AM CDT 6:06 PM CDT
Civil Twilight 6:46 AM CDT 6:35 PM CDT
Nautical Twilight 6:13 AM CDT 7:07 PM CDT
Astronomical Twilight 5:41 AM CDT 7:40 PM CDT
Moon 3:59 AM CDT (10/20) 4:32 PM CDT (10/20)
Length of Visible Light 11h 48m
Length of Day
10h 51m
Waning Crescent, 10% of the Moon is Illuminated
Oct 20
Waning Crescent
Oct 23
New
Oct 30
First Quarter
Nov 6
Full
Nov 14
Last Quarter

Hourly Weather History & Observations

Time (CDT) Temp. Windchill Dew Point Humidity Pressure Visibility Wind Dir Wind Speed Gust Speed Precip Events Conditions
12:54 AM 48.0 °F - 42.1 °F 80% 29.88 in 10.0 mi South 9.2 mph - N/A   Clear
1:54 AM 48.0 °F - 42.1 °F 80% 29.86 in 10.0 mi SSW 8.1 mph - N/A   Clear
2:54 AM 46.9 °F - 42.1 °F 83% 29.85 in 10.0 mi South 6.9 mph - N/A   Clear
3:54 AM 46.9 °F - 42.1 °F 83% 29.83 in 10.0 mi SSW 6.9 mph - N/A   Scattered Clouds
4:54 AM 46.9 °F - 42.1 °F 83% 29.83 in 10.0 mi SSW 6.9 mph - N/A   Partly Cloudy
5:54 AM 46.0 °F 44.8 °F 41.0 °F 83% 29.84 in 10.0 mi WSW 3.5 mph - N/A   Clear
6:54 AM 45.0 °F 41.2 °F 41.0 °F 86% 29.85 in 10.0 mi West 6.9 mph - N/A   Partly Cloudy
7:54 AM 46.9 °F - 42.1 °F 83% 29.87 in 10.0 mi NW 6.9 mph - N/A   Partly Cloudy
8:54 AM 51.1 °F - 44.1 °F 77% 29.89 in 10.0 mi NNW 12.7 mph - N/A   Partly Cloudy
9:54 AM 55.0 °F - 45.0 °F 69% 29.91 in 10.0 mi NNW 13.8 mph - N/A   Partly Cloudy
10:54 AM 59.0 °F - 46.0 °F 62% 29.91 in 10.0 mi NNW 11.5 mph - N/A   Clear
11:54 AM 62.6 °F - 46.4 °F 55% 29.91 in 10.0 mi NNW 12.7 mph 17.3 mph N/A   Partly Cloudy
12:54 PM 63.0 °F - 43.0 °F 48% 29.91 in 10.0 mi North 15.0 mph 24.2 mph N/A   Scattered Clouds
1:54 PM 63.0 °F - 43.0 °F 48% 29.89 in 10.0 mi NNW 11.5 mph - N/A   Scattered Clouds
2:54 PM 63.0 °F - 41.0 °F 45% 29.90 in 10.0 mi NNW 15.0 mph 24.2 mph N/A   Scattered Clouds
3:54 PM 64.0 °F - 42.1 °F 45% 29.91 in 10.0 mi NNW 19.6 mph 25.3 mph N/A   Mostly Cloudy
4:54 PM 60.1 °F - 41.0 °F 49% 29.95 in 10.0 mi North 11.5 mph - N/A   Mostly Cloudy
5:54 PM 57.9 °F - 41.0 °F 53% 29.97 in 10.0 mi NNE 12.7 mph - N/A   Mostly Cloudy
6:54 PM 55.9 °F - 39.9 °F 55% 30.00 in 10.0 mi NNE 11.5 mph - N/A   Mostly Cloudy
7:54 PM 53.1 °F - 39.0 °F 59% 30.02 in 10.0 mi NNE 9.2 mph - N/A   Scattered Clouds
8:54 PM 51.1 °F - 39.9 °F 66% 30.04 in 10.0 mi NNE 5.8 mph - N/A   Mostly Cloudy
9:54 PM 51.1 °F - 41.0 °F 68% 30.04 in 10.0 mi NNE 5.8 mph - N/A   Mostly Cloudy
10:54 PM 48.9 °F - 39.9 °F 71% 30.05 in 10.0 mi NNE 5.8 mph - N/A   Mostly Cloudy
11:54 PM 50.0 °F - 41.0 °F 71% 30.04 in 10.0 mi NNW 4.6 mph - N/A   Overcast